Flag for Germany Weather past 2 weeks in Friesoythe, Lower Saxony, Germany

Now
57 °F

Cool.


Feels Like: 57 °F
Forecast: 56 / 63 °F
Wind: 1 mph from West

Location: Meppen-Mil

Current Time: Sep 20, 2014 at 4:17:35 AM

Latest Report: Sep 20, 2014 at 3:20 AM


Visibility: 0 mi

Pressure: 29.89 "Hg

Humidity: 100%

Dew point: 57 °F

Location of FriesoytheLocation

Historic Weather in Friesoythe — Graph

°F

Friesoythe temperature yesterday

Maximum temperature yesterday: 73 °F (at 3:20 PM)
Minimum temperature yesterday: 52 °F (at 5:20 AM)
Average temperature yesterday: 62 °F

Past Weeks' High & Low Weather Summary

 TemperatureHumidityPressure
High79 °F (Sep 18, 4:20 PM)100% (Sep 8, 7:20 AM)30.27 "Hg (Sep 8, 7:20 AM)
Low48 °F (Sep 15, 4:20 AM)45% (Sep 18, 4:20 PM)29.83 "Hg (Sep 18, 4:20 PM)
Average62 °F80%30.04 "Hg
* Reported Sep 5 2:20 AM — Sep 20 2:20 AM, Friesoythe, Weather by CustomWeather, © 2014

Note: Actual official high and low records may vary slightly from our data, if they occured in-between our weather recording intervals... More about our weather records

Advertising

Friesoythe weather history for previous 24 hours

 ConditionsComfort  
Time TempWeatherWind HumidityBarometerVisibility
2:20 AM
Sep 20
57 °FCool.2 mph94%29.92 "Hg0 mi
1:20 AM57 °FCool.No wind94%29.89 "Hg0 mi
12:20 AM59 °FCool.1 mph94%29.89 "Hg0 mi
11:20 PM
Sep 19
61 °FCool.No wind94%29.92 "Hg0 mi
10:20 PM61 °FCool.2 mph94%29.89 "Hg1 mi
9:20 PM63 °FMild.1 mph94%29.89 "Hg1 mi
8:20 PM64 °FMild.1 mph88%29.89 "Hg1 mi
7:20 PM68 °FMild.1 mph83%29.86 "Hg3 mi
6:20 PM70 °FMild.2 mph78%29.86 "Hg4 mi
5:20 PM72 °FMild.5 mph69%29.86 "Hg4 mi
4:20 PM72 °FMild.3 mph69%29.86 "Hg4 mi
3:20 PM73 °FMild.5 mph65%29.86 "Hg4 mi
2:20 PM72 °FMild.6 mph69%29.86 "Hg4 mi
1:20 PM72 °FMild.3 mph69%29.86 "Hg4 mi
12:20 PM70 °FMild.3 mph73%29.86 "Hg4 mi
11:20 AM68 °FPartly sunny.5 mph73%29.89 "HgN/A
10:20 AM68 °FScattered clouds.5 mph73%29.89 "HgN/A
8:45 AM59 °FPassing clouds.3 mph94%29.86 "Hg4 mi
8:20 AM57 °FFog.3 mph94%29.86 "Hg1 mi
7:20 AM52 °FFog.3 mph100%29.86 "Hg0 mi
6:20 AM52 °FCool.3 mph94%29.86 "Hg0 mi
5:20 AM52 °FCool.3 mph94%29.86 "Hg0 mi
4:20 AM54 °FCool.2 mph94%29.86 "Hg0 mi
Weather by CustomWeather, © 2014

See weather overviewHow to use our weather pages